Weather History for KMFV - November, 2011

Change the Weather History Date:

Sunday, November 20, 2011

  Actual Average (KWAL) Record (KWAL)
Temperature  
Mean Temperature 61 °F 48 °F  
Max Temperature 69 °F 57 °F 77 °F (1985)
Min Temperature 53 °F 40 °F 27 °F (1984)
Degree Days  
Heating Degree Days 4    
Month to date heating degree days  
Since 1 July heating degree days  
Cooling Degree Days 0    
Month to date cooling degree days  
Year to date cooling degree days  
Growing Degree Days 11 (Base 50)    
Moisture  
Dew Point 54 °F    
Average Humidity 76    
Maximum Humidity 94    
Minimum Humidity 64    
Precipitation  
Precipitation 0.00 in 0.10 in 0.17 in (2003)
Month to date precipitation 1.89  
Year to date precipitation 36.43  
Sea Level Pressure  
Sea Level Pressure 30.25 in    
Wind  
Wind Speed 9 mph (SW)    
Max Wind Speed 21 mph    
Max Gust Speed 28 mph    
Visibility 10 miles    
Events      
T = Trace of Precipitation, MM = Missing Value Source: NWS Daily Summary

Daily Weather History Graph

Daily Weather History Graph

Search for Another Location

Airport or City:

Trip Planner

Search our weather history database for the weather conditions in past years. The results will help you decide how hot, cold, wet, or windy it might be!

Date:

Astronomy

Nov. 20, 2011 Rise Set
Actual Time 6:47 AM EST 4:48 PM EST
Civil Twilight 6:19 AM EST 5:17 PM EST
Nautical Twilight 5:47 AM EST 5:49 PM EST
Astronomical Twilight 5:16 AM EST 6:20 PM EST
Moon 1:19 AM EST (11/20) 1:32 PM EST (11/20)
Length of Visible Light 10h 57m
Length of Day
10h 01m
Waning Crescent, 27% of the Moon is Illuminated
Nov 20
Waning Crescent
Nov 25
New
Dec 2
First Quarter
Dec 10
Full
Dec 17
Last Quarter

Hourly Weather History & Observations

Time (EST) Temp. Dew Point Humidity Pressure Visibility Wind Dir Wind Speed Gust Speed Precip Events Conditions
12:15 AM 57.2 °F 50.0 °F 77% 30.33 in 10.0 mi SSW 12.7 mph 16.1 mph N/A   Mostly Cloudy
12:35 AM 57.2 °F 50.0 °F 77% 30.32 in 10.0 mi SSW 9.2 mph - N/A   Overcast
1:15 AM 57.2 °F 50.0 °F 77% 30.32 in 10.0 mi South 6.9 mph - N/A   Overcast
1:35 AM 57.2 °F 48.2 °F 72% 30.31 in 10.0 mi South 5.8 mph - N/A   Overcast
1:55 AM 57.2 °F 48.2 °F 72% 30.32 in 10.0 mi SSW 6.9 mph - N/A   Overcast
2:15 AM 57.2 °F 50.0 °F 77% 30.32 in 10.0 mi SSW 6.9 mph - N/A   Overcast
2:35 AM 57.2 °F 48.2 °F 72% 30.31 in 10.0 mi SSW 5.8 mph - N/A   Overcast
2:55 AM 55.4 °F 48.2 °F 77% 30.31 in 10.0 mi SW 8.1 mph - N/A   Mostly Cloudy
3:15 AM 55.4 °F 48.2 °F 77% 30.30 in 10.0 mi SW 10.4 mph - N/A   Scattered Clouds
3:35 AM 55.4 °F 48.2 °F 77% 30.30 in 10.0 mi WSW 8.1 mph - N/A   Clear
3:55 AM 53.6 °F 48.2 °F 82% 30.30 in 10.0 mi SW 8.1 mph - N/A   Clear
4:15 AM 53.6 °F 48.2 °F 82% 30.30 in 10.0 mi SW 8.1 mph - N/A   Clear
4:35 AM 53.6 °F 48.2 °F 82% 30.30 in 10.0 mi SW 9.2 mph - N/A   Clear
4:55 AM 53.6 °F 48.2 °F 82% 30.30 in 10.0 mi SW 8.1 mph - N/A   Clear
5:15 AM 53.6 °F 48.2 °F 82% 30.29 in 10.0 mi SW 11.5 mph - N/A   Clear
5:35 AM 53.6 °F 48.2 °F 82% 30.29 in 10.0 mi SSW 10.4 mph - N/A   Clear
5:55 AM 53.6 °F 48.2 °F 82% 30.28 in 10.0 mi SW 10.4 mph - N/A   Clear
6:55 AM 55.4 °F 48.2 °F 77% 30.29 in 10.0 mi SW 9.2 mph - N/A   Clear
7:15 AM 55.4 °F 48.2 °F 77% 30.29 in 10.0 mi SW 10.4 mph - N/A   Clear
8:15 AM 59.0 °F 51.8 °F 77% 30.30 in 10.0 mi SW 10.4 mph 16.1 mph N/A   Clear
8:35 AM 60.8 °F 51.8 °F 72% 30.30 in 10.0 mi SW 15.0 mph 19.6 mph N/A   Clear
9:15 AM 62.6 °F 51.8 °F 68% 30.30 in 10.0 mi SW 12.7 mph 19.6 mph N/A   Clear
9:35 AM 62.6 °F 51.8 °F 68% 30.30 in 10.0 mi SW 13.8 mph 24.2 mph N/A   Clear
9:55 AM 62.6 °F 53.6 °F 72% 30.30 in 10.0 mi WSW 13.8 mph 23.0 mph N/A   Clear
10:15 AM 64.4 °F 53.6 °F 68% 30.30 in 10.0 mi SW 12.7 mph 18.4 mph N/A   Clear
10:35 AM 64.4 °F 53.6 °F 68% 30.29 in 10.0 mi WSW 11.5 mph 21.9 mph N/A   Clear
10:55 AM 64.4 °F 53.6 °F 68% 30.29 in 10.0 mi SW 19.6 mph 25.3 mph N/A   Clear
11:15 AM 64.4 °F 55.4 °F 73% 30.28 in 10.0 mi SW 13.8 mph 24.2 mph N/A   Clear
11:35 AM 66.2 °F 55.4 °F 68% 30.26 in 10.0 mi SW 20.7 mph 27.6 mph N/A   Clear
11:55 AM 66.2 °F 55.4 °F 68% 30.25 in 10.0 mi SW 12.7 mph 18.4 mph N/A   Clear
12:15 PM 64.4 °F 55.4 °F 73% 30.25 in 10.0 mi SW 12.7 mph 18.4 mph N/A   Clear
12:35 PM 64.4 °F 55.4 °F 73% 30.24 in 10.0 mi SW 18.4 mph - N/A   Clear
1:15 PM 66.2 °F 57.2 °F 73% 30.23 in 10.0 mi SW 11.5 mph 21.9 mph N/A   Clear
1:55 PM 68.0 °F 57.2 °F 68% 30.20 in 10.0 mi SW 16.1 mph 21.9 mph N/A   Clear
2:15 PM 68.0 °F 57.2 °F 68% 30.20 in 10.0 mi SW 11.5 mph 16.1 mph N/A   Clear
2:55 PM 68.0 °F 57.2 °F 68% 30.20 in 10.0 mi SW 11.5 mph - N/A   Clear
3:15 PM 69.8 °F 57.2 °F 64% 30.20 in 10.0 mi SW 8.1 mph 18.4 mph N/A   Clear
3:35 PM 69.8 °F 57.2 °F 64% 30.20 in 10.0 mi SW 12.7 mph 16.1 mph N/A   Clear
3:55 PM 68.0 °F 57.2 °F 68% 30.21 in 10.0 mi WSW 8.1 mph - N/A   Clear
4:15 PM 68.0 °F 57.2 °F 68% 30.20 in 10.0 mi SW 8.1 mph - N/A   Clear
4:35 PM 66.2 °F 57.2 °F 73% 30.21 in 10.0 mi SW 6.9 mph - N/A   Clear
4:55 PM 64.4 °F 57.2 °F 77% 30.21 in 10.0 mi SW 5.8 mph - N/A   Clear
5:15 PM 64.4 °F 57.2 °F 77% 30.22 in 10.0 mi SW 4.6 mph - N/A   Clear
5:35 PM 62.6 °F 57.2 °F 82% 30.21 in 10.0 mi SW 5.8 mph - N/A   Clear
5:55 PM 62.6 °F 57.2 °F 82% 30.22 in 10.0 mi SW 5.8 mph - N/A   Clear
6:15 PM 62.6 °F 55.4 °F 77% 30.21 in 10.0 mi SSW 4.6 mph - N/A   Clear
6:35 PM 60.8 °F 55.4 °F 82% 30.22 in 10.0 mi SSW 4.6 mph - N/A   Clear
7:15 PM 59.0 °F 55.4 °F 88% 30.22 in 10.0 mi SSW 3.5 mph - N/A   Clear
7:35 PM 59.0 °F 55.4 °F 88% 30.21 in 10.0 mi SSW 5.8 mph - N/A   Clear
7:55 PM 57.2 °F 55.4 °F 94% 30.21 in 10.0 mi South 4.6 mph - N/A   Clear
8:15 PM 60.8 °F 55.4 °F 82% 30.20 in 10.0 mi SSW 4.6 mph - N/A   Clear
8:35 PM 59.0 °F 55.4 °F 88% 30.20 in 10.0 mi SSW 4.6 mph - N/A   Clear
8:55 PM 60.8 °F 55.4 °F 82% 30.20 in 10.0 mi SSW 5.8 mph - N/A   Clear
9:15 PM 62.6 °F 55.4 °F 77% 30.20 in 10.0 mi SSW 5.8 mph - N/A   Clear
9:35 PM 62.6 °F 57.2 °F 82% 30.20 in 10.0 mi SSW 5.8 mph - N/A   Clear
9:55 PM 62.6 °F 57.2 °F 82% 30.19 in 10.0 mi SSW 6.9 mph - N/A   Clear
10:15 PM 64.4 °F 57.2 °F 77% 30.18 in 10.0 mi SSW 5.8 mph - N/A   Clear
10:35 PM 62.6 °F 57.2 °F 82% 30.18 in 10.0 mi SSW 6.9 mph - N/A   Clear
10:55 PM 64.4 °F 57.2 °F 77% 30.18 in 10.0 mi SSW 5.8 mph - N/A   Clear
11:15 PM 64.4 °F 57.2 °F 77% 30.17 in 10.0 mi SSW 6.9 mph - N/A   Clear
11:35 PM 64.4 °F 57.2 °F 77% 30.17 in 10.0 mi SW 8.1 mph - N/A   Clear
11:55 PM 66.2 °F 57.2 °F 73% 30.17 in 10.0 mi SW 8.1 mph - N/A   Clear